sat.trackr.live / text

‹ back to catalog

STARLINK-2519

NORAD 48305 · 2021-036AF

PAYLOAD ACTIVE UNKNOWN

§ Identity

Operator
Country
US
Launch date
2021-04-29
Launch site
AFETR
Launch vehicle
Mass (kg)
RCS (m²)

Purposes: comms

External: N2YO · Heavens-Above · Gunter

§ Orbital elements

Epoch: 2026-05-25T03:34:58.401120Z

Period
94.01 min
Inclination
53.1616°
Eccentricity
0.0001272
Mean motion
15.31701156 rev/d
Perigee alt
469.9 km
Apogee alt
471.6 km
Semi-major
6,848.9 km
B*
3.0507e-5
RAAN
103.8728°
Arg perigee
89.3397°
Mean anomaly
270.7750°
Rev number
27,976

§ Raw data

STARLINK-25191 48305U 21036AF  26145.14928705  .00000582  00000+0  30507-4 0  99992 48305  53.1616 103.8728 0001272  89.3397 270.7750 15.31701156279763

JSON: /api/v1/satellites/48305 · /tle

For live sub-satellite position, see the globe view (requires WebGL).

§ Visibility from observer

Set your observer location to see the next 7 days of passes ≥ 10°. The values pass through the URL so the page stays shareable.

No JS? Fill the form by hand. The geolocation button needs JavaScript.